Regional Weather Roundup
Issued by NWS Goodland, KS

Home | Current Version | Previous Version | Text Only | Print | Product List | Glossary Off
Versions: 1 2 3 4 5 6 7 8 9 10 11 12 13 14 15 16 17 18 19 20 21 22 23 24 25 26 27 28 29 30 31 32 33 34 35 36 37 38 39 40 41 42 43 44 45 46 47 48 49 50

000
ASUS43 KGLD 300659
RWRGLD

GOODLAND FORECAST AREA HOURLY WEATHER ROUNDUP
NATIONAL WEATHER SERVICE GOODLAND KS
100 AM MDT MON MAY 30 2016

...OFFICIAL OBSERVATIONS...

CITY           SKY/WX    TMP DP  RH WIND       PRES   REMARKS
GOODLAND KS    CLOUDY    58  50  75 NE5       30.11R
HILL CITY KS   CLOUDY    60  53  77 NW9       30.04R
IMPERIAL NEB   CLOUDY    59  53  80 S13       30.08F
MCCOOK NEB     CLOUDY    62  51  67 S6        30.07S
AKRON CO       CLOUDY    55  48  77 S10       30.09F
BURLINGTON CO  CLOUDY    54  50  86 SE9       30.13R
LIMON CO       CLOUDY    47  45  93 SE3       30.15F
$$

...UNOFFICIAL OBSERVATIONS...

CITY           SKY/WX    TMP DP  RH WIND       PRES   REMARKS
GOVE KS          N/A     72  32  23 MISG        N/A
LENORA KS        N/A     58  32  37 MISG        N/A
SHARON SPRINGS   N/A     57  53  85 N5          N/A
TRIBUNE KS     CLEAR     55  52  88 S9        30.13
KIT CARSON CO    N/A     53  47  82 CALM        N/A
YUMA CO          N/A     56  51  82 CALM        N/A
$$




USA.gov is the U.S. government's official web portal to all federal, state and local government web resources and services.